Date_and_time,latitude,longitude,wind_speed,RelWindDirFrom,WindDirFrom,air_pressure,air_temperature,relative_humidity,Temp,platform_speed_wrt_ground,air_pressure_at_mean_sea_level,platform_orientation
2018-04-26 23:40,50.6304333333333,-96.9807616666667,2.1,4.2,107,982.44,4.8,67,4.46,0.0,1009.74,41.2
2018-04-26 23:50,50.630435,-96.9807616666667,5.2,11.0,181,982.29,6.4,54,4.36,0.0,1009.51,41.2
2018-04-27 00:00,50.6304366666667,-96.9807616666667,4.2,9.1,176,982.12,8.7,47,4.23,0.0,1009.21,360.0
2018-04-27 00:10,50.6304383333333,-96.9807616666667,7.4,12.1,187,982.13,10.0,43,4.25,0.0,1009.17,360.0
2018-04-27 00:20,50.6304366666667,-96.9807616666667,1.9,4.1,103,981.92,11.5,40,4.32,0.0,1008.88,360.0
2018-04-27 00:30,50.6304366666667,-96.9808233333333,4.3,6.4,134,981.73,10.3,42,4.38,0.0,1008.71,360.0
2018-04-27 00:40,50.6304333333333,-96.980765,5.5,7.3,115,981.48,9.9,43,4.34,0.0,1008.48,360.0
2018-04-27 00:50,50.6304283333333,-96.9807616666667,7.1,8.0,131,981.28,9.4,44,4.36,0.0,1008.32,360.0
2018-04-27 01:00,50.6304266666667,-96.9807633333333,7.0,9.5,166,980.93,7.3,52,4.36,0.0,1008.07,360.0
2018-04-27 01:10,50.6304266666667,-96.9807633333333,5.5,9.1,149,980.73,6.3,57,4.21,0.0,1007.90,360.0
2018-04-27 01:20,50.6304366666667,-96.98077,1.4,6.1,227,980.68,5.7,59,4.08,0.0,1007.86,360.0
2018-04-27 01:30,50.6304416666667,-96.9807716666667,5.0,7.5,175,980.58,6.6,54,4.04,0.0,1007.66,360.0
2018-04-27 01:40,50.6304433333333,-96.9807683333333,5.8,7.0,186,980.39,6.2,57,4.03,0.0,1007.41,360.0
2018-04-27 01:50,50.6304433333333,-96.9807733333333,5.4,6.6,194,980.43,6.2,57,4.00,0.0,1007.34,360.0
2018-04-27 02:00,50.6304416666667,-96.9807733333333,5.5,8.3,170,980.41,6.5,56,4.08,0.0,1007.25,270.0
2018-04-27 02:10,50.6304416666667,-96.9807716666667,5.1,7.1,181,980.34,5.6,61,4.11,0.0,1007.15,270.0
2018-04-27 02:20,50.63044,-96.9807683333333,3.5,5.1,198,980.37,5.8,59,3.87,0.0,1007.22,270.0
2018-04-27 02:30,50.63044,-96.98077,2.5,4.0,218,980.42,6.6,56,3.84,0.0,1007.25,270.0
2018-04-27 02:40,50.6304366666667,-96.9807566666667,3.7,5.4,243,980.72,7.7,53,3.90,0.0,1007.53,270.0
2018-04-27 02:50,50.6304383333333,-96.9807616666667,8.1,14.9,327,981.18,8.9,51,3.83,0.0,1008.05,270.0
2018-04-27 03:00,50.6304333333333,-96.9807616666667,6.3,11.8,292,980.95,12.5,41,3.88,0.0,1007.69,142.0
2018-04-27 03:10,50.6304283333333,-96.980775,9.2,14.9,4,981.09,9.2,55,3.96,0.0,1008.02,142.0
2018-04-27 03:20,50.630475,-96.9808083333333,15.8,21.1,9,981.25,5.2,67,4.00,0.0,1008.34,142.0
2018-04-27 03:30,50.6304466666667,-96.98077,13.1,17.3,13,981.46,4.0,76,4.00,0.0,1008.63,142.0
2018-04-27 03:40,50.6304416666667,-96.980765,9.2,12.4,34,981.38,2.9,84,4.03,0.0,1008.60,142.0
2018-04-27 03:50,50.6304366666667,-96.980765,5.8,8.1,36,981.33,2.9,84,3.96,0.0,1008.54,142.0
2018-04-27 04:00,50.6304333333333,-96.9807666666667,4.5,5.9,38,981.28,3.3,81,3.88,0.0,1008.51,360.0
2018-04-27 04:10,50.6304316666667,-96.9807666666667,4.2,6.2,35,981.31,3.7,79,3.93,0.0,1008.51,360.0
2018-04-27 04:20,50.630405,-96.9808,3.4,5.9,41,981.25,4.0,77,3.91,0.0,1008.39,360.0
2018-04-27 04:30,50.630425,-96.98076,0.2,1.7,96,981.23,4.1,76,3.79,0.0,1008.31,360.0
2018-04-27 04:40,50.6304316666667,-96.9807616666667,1.8,2.8,235,981.18,4.2,74,3.48,0.0,1008.20,360.0
2018-04-27 04:50,50.6304333333333,-96.9807633333333,2.6,3.9,255,981.10,5.0,70,3.81,0.0,1007.91,360.0
2018-04-27 05:00,50.6304333333333,-96.9807616666667,3.5,4.9,260,981.07,4.7,71,3.93,0.0,1008.05,131.7
2018-04-27 05:10,50.630435,-96.9807633333333,4.4,5.5,258,981.03,4.2,72,3.70,0.0,1008.23,131.7
2018-04-27 05:20,50.6304333333333,-96.980765,3.2,3.9,269,981.00,4.4,71,3.49,0.0,1008.25,131.7
2018-04-27 05:30,50.630435,-96.980765,3.3,4.6,301,981.18,4.5,71,3.56,0.0,1008.49,131.7
2018-04-27 05:40,50.6304333333333,-96.9807666666667,4.1,7.4,321,981.39,4.4,71,3.53,0.0,1008.70,131.7
2018-04-27 05:50,50.6304483333333,-96.9807766666667,5.8,8.3,307,981.61,4.2,73,3.66,0.0,1008.91,131.7
2018-04-27 06:00,50.63044,-96.9807783333333,6.0,7.6,287,981.66,5.0,67,3.78,0.0,1008.91,302.3
2018-04-27 06:10,50.6304483333333,-96.980755,7.9,11.7,297,981.90,5.1,66,3.82,0.0,1009.14,302.3
2018-04-27 06:20,50.6304416666667,-96.980755,10.1,16.4,311,981.99,5.9,62,3.84,0.0,1009.19,302.3
2018-04-27 06:30,50.6304383333333,-96.980755,14.4,19.6,339,981.89,6.6,61,3.84,0.0,1009.04,302.3
2018-04-27 06:40,50.6304366666667,-96.980755,19.1,23.8,357,981.70,6.7,63,3.81,0.0,1008.80,302.3
2018-04-27 06:50,50.6304366666667,-96.980755,12.7,18.9,346,982.02,6.7,65,3.91,0.0,1009.15,302.3
2018-04-27 07:00,50.630435,-96.9807533333333,9.3,14.7,332,982.17,7.1,64,3.81,0.0,1009.31,60.8
2018-04-27 07:10,50.6304333333333,-96.980755,9.8,15.3,325,982.22,7.0,64,3.59,0.0,1009.35,60.8
2018-04-27 07:20,50.6304316666667,-96.980755,10.8,18.4,317,982.28,6.8,66,3.60,0.0,1009.42,60.8
2018-04-27 07:30,50.6304333333333,-96.9807566666667,12.8,20.8,317,982.22,6.7,66,3.67,0.0,1009.37,60.8
2018-04-27 07:40,50.6304333333333,-96.9807566666667,12.0,18.3,322,982.41,6.6,66,3.62,0.0,1009.57,60.8
2018-04-27 07:50,50.6304316666667,-96.980755,12.6,18.8,319,982.50,6.4,67,3.63,0.0,1009.64,60.8
2018-04-27 08:00,50.6304316666667,-96.980755,13.1,22.8,321,982.65,6.2,67,3.69,0.0,1009.79,0.0
2018-04-27 08:10,50.63043,-96.980755,12.0,17.2,323,982.88,5.8,69,3.38,0.0,1010.01,0.0
2018-04-27 08:20,50.6304316666667,-96.9807533333333,11.9,17.3,324,982.96,5.6,70,3.40,0.0,1010.08,0.0
2018-04-27 08:30,50.6304166666667,-96.9807383333333,11.2,18.0,321,983.13,5.3,71,3.64,0.0,1010.25,0.0
2018-04-27 08:40,50.6304233333333,-96.9807466666667,10.6,14.9,321,983.34,5.0,72,3.65,0.0,1010.49,0.0
2018-04-27 08:50,50.6304266666667,-96.9807516666667,10.2,14.8,322,983.55,4.7,74,3.63,0.0,1010.70,0.0
2018-04-27 09:00,50.6304266666667,-96.9807533333333,10.9,15.3,322,983.72,4.5,75,3.67,0.0,1010.89,129.1
2018-04-27 09:10,50.6304283333333,-96.980755,10.6,14.1,320,983.98,4.2,77,3.75,0.0,1011.18,129.1
2018-04-27 09:20,50.6304283333333,-96.9807566666667,10.7,16.2,326,984.15,3.9,80,3.69,0.0,1011.37,129.1
2018-04-27 09:30,50.63043,-96.980755,11.2,16.3,332,984.29,3.6,82,3.72,0.0,1011.53,129.1
2018-04-27 09:40,50.63043,-96.9807566666667,11.7,16.8,332,984.47,3.4,84,3.82,0.0,1011.74,129.1
2018-04-27 09:50,50.63043,-96.980755,11.0,15.8,331,984.67,3.1,87,3.87,0.0,1011.97,129.1
2018-04-27 10:00,50.63043,-96.980755,11.4,17.3,332,984.84,2.9,89,3.87,0.0,1012.17,194.5
2018-04-27 10:10,50.6304316666667,-96.980755,12.7,17.7,335,984.96,2.7,90,3.81,0.0,1012.32,194.5
2018-04-27 10:20,50.6304316666667,-96.980755,12.9,17.9,342,985.19,2.6,91,3.79,0.0,1012.57,194.5
2018-04-27 10:30,50.6304316666667,-96.9807533333333,13.6,19.6,350,985.41,2.5,93,3.81,0.0,1012.82,194.5
2018-04-27 10:40,50.6304316666667,-96.9807533333333,13.7,21.5,351,985.55,2.4,94,3.81,0.0,1012.99,194.5
2018-04-27 10:50,50.6303983333333,-96.980755,15.8,21.2,353,985.58,2.4,95,3.77,0.0,1013.03,194.5
2018-04-27 11:00,50.6304216666667,-96.9807516666667,15.8,22.6,349,985.78,2.3,96,3.76,0.0,1013.25,165.5
2018-04-27 11:10,50.63044,-96.9807516666667,16.0,23.3,351,986.01,2.3,96,3.74,0.0,1013.50,165.5
2018-04-27 11:20,50.63044,-96.9807533333333,15.8,23.4,354,986.27,2.1,97,3.72,0.0,1013.80,165.5
2018-04-27 11:30,50.6304233333333,-96.98075,16.4,23.8,354,986.52,2.0,98,3.77,0.0,1014.07,165.5
2018-04-27 11:40,50.63043,-96.9807483333333,16.2,24.4,353,986.69,2.0,97,3.82,0.0,1014.26,165.5
2018-04-27 11:50,50.6304316666667,-96.9807466666667,13.6,18.6,354,987.04,1.9,98,3.78,0.0,1014.63,165.5
2018-04-27 12:00,50.6304316666667,-96.980745,13.5,20.4,344,987.20,1.9,97,3.75,0.0,1014.81,12.6
2018-04-27 12:10,50.6304333333333,-96.980745,13.4,20.3,344,987.37,1.9,96,3.77,0.0,1014.99,12.6
2018-04-27 12:20,50.6304333333333,-96.980745,16.7,22.9,346,987.32,1.8,95,3.74,0.0,1014.94,12.6
2018-04-27 12:30,50.6304333333333,-96.9807466666667,15.6,24.7,343,987.44,1.8,95,3.72,0.0,1015.07,12.6
2018-04-27 12:40,50.6304316666667,-96.9807483333333,16.7,24.1,352,987.68,1.9,95,3.76,0.0,1015.32,12.6
2018-04-27 12:50,50.6304333333333,-96.9807483333333,16.9,24.6,353,987.92,1.9,95,3.75,0.0,1015.57,12.6
2018-04-27 13:00,50.6304333333333,-96.980775,15.9,24.6,347,988.03,1.9,94,3.74,0.0,1015.69,305.3
2018-04-27 13:10,50.63043,-96.98075,16.2,24.1,345,988.14,1.9,94,3.71,0.0,1015.81,305.3
2018-04-27 13:20,50.6304316666667,-96.9807483333333,14.2,20.6,351,988.49,1.9,94,3.72,0.0,1016.17,305.3
2018-04-27 13:30,50.6304316666667,-96.9807516666667,11.1,18.4,348,988.70,1.9,94,3.74,0.0,1016.39,305.3
2018-04-27 13:40,50.6304333333333,-96.9807516666667,12.7,19.1,345,988.81,2.1,94,3.76,0.0,1016.49,305.3
2018-04-27 13:50,50.630435,-96.9807533333333,12.5,18.7,347,989.07,2.2,95,3.77,0.0,1016.76,305.3
2018-04-27 14:00,50.6304366666667,-96.980755,12.7,21.4,352,989.33,2.2,97,3.79,0.0,1017.03,336.5
2018-04-27 14:10,50.6304366666667,-96.9807566666667,14.1,18.2,354,989.49,2.1,98,3.79,0.0,1017.19,336.5
2018-04-27 14:20,50.6304366666667,-96.9807566666667,14.2,24.6,353,989.66,2.2,99,3.79,0.0,1017.37,336.5
2018-04-27 14:30,50.630435,-96.9807566666667,16.0,22.4,355,989.79,2.3,98,3.81,0.0,1017.49,336.5
2018-04-27 14:40,50.630435,-96.9807566666667,17.3,21.9,360,989.97,2.3,97,3.84,0.0,1017.68,336.5
2018-04-27 14:50,50.630435,-96.9807583333333,16.1,23.0,359,990.17,2.3,97,3.89,0.0,1017.88,336.5
2018-04-27 15:00,50.630435,-96.9807583333333,17.7,22.3,360,990.25,2.4,95,3.93,0.0,1017.96,299.2
2018-04-27 15:10,50.630435,-96.9807583333333,15.0,21.1,360,990.47,2.4,94,3.97,0.0,1018.18,299.2
2018-04-27 15:20,50.6304366666667,-96.98076,14.5,20.4,359,990.66,2.5,94,4.02,0.0,1018.37,299.2
2018-04-27 15:30,50.6304366666667,-96.98076,15.5,19.7,1,990.78,2.6,93,4.05,0.0,1018.48,299.2
2018-04-27 15:40,50.6304366666667,-96.98076,16.2,21.9,357,990.92,2.8,91,4.03,0.0,1018.62,299.2
2018-04-27 15:50,50.6304366666667,-96.98076,15.6,19.9,4,991.16,2.8,91,4.03,0.0,1018.87,299.2
2018-04-27 16:00,50.630435,-96.9807616666667,14.6,19.6,3,991.39,2.7,91,4.04,0.0,1019.11,60.8
2018-04-27 16:10,50.6304283333333,-96.9807466666667,13.1,17.6,1,991.67,2.8,90,4.01,0.0,1019.39,60.8
2018-04-27 16:20,50.6304333333333,-96.9807633333333,13.3,17.8,3,991.80,3.0,88,3.99,0.0,1019.51,60.8
2018-04-27 16:30,50.630435,-96.9807483333333,13.8,16.9,7,991.88,3.0,88,4.01,0.0,1019.58,60.8
2018-04-27 16:40,50.6304333333333,-96.98075,12.4,16.0,5,992.04,3.0,88,4.02,0.0,1019.75,60.8
2018-04-27 16:50,50.6304316666667,-96.98075,11.7,14.5,8,992.22,3.2,86,4.02,0.0,1019.92,60.8
2018-04-27 17:00,50.63043,-96.9807516666667,13.5,17.4,8,992.29,3.4,84,4.11,0.0,1019.98,165.5
2018-04-27 17:10,50.6304316666667,-96.9807566666667,13.1,15.8,16,992.36,3.0,87,4.17,0.0,1020.07,165.5
2018-04-27 17:20,50.63043,-96.9807566666667,10.6,13.6,22,992.46,2.7,90,4.22,0.0,1020.18,165.5
2018-04-27 17:30,50.63043,-96.9807583333333,9.1,10.8,27,992.51,2.5,91,4.26,0.0,1020.23,165.5
2018-04-27 17:40,50.6304316666667,-96.98076,9.2,11.0,31,992.50,2.5,92,4.27,0.0,1020.22,165.5
2018-04-27 17:50,50.6304316666667,-96.98076,9.8,11.4,29,992.53,2.5,92,4.31,0.0,1020.26,165.5
2018-04-27 18:00,50.6304333333333,-96.9807616666667,8.8,10.4,26,992.64,2.5,91,4.35,0.0,1020.36,142.0
2018-04-27 18:10,50.6304316666667,-96.9807633333333,7.7,9.0,28,992.71,2.7,90,4.35,0.0,1020.41,142.0
2018-04-27 18:20,50.6304316666667,-96.9807633333333,7.2,8.3,26,992.82,2.7,90,4.31,0.0,1020.53,142.0
2018-04-27 18:30,50.6304316666667,-96.9807633333333,8.5,11.0,26,992.88,2.8,89,4.28,0.0,1020.59,142.0
2018-04-27 18:40,50.6304316666667,-96.9807633333333,9.2,11.0,26,992.91,2.6,90,4.27,0.0,1020.61,142.0
2018-04-27 18:50,50.6304316666667,-96.9807633333333,8.3,9.3,24,992.92,2.6,90,4.33,0.0,1020.62,142.0
2018-04-27 19:00,50.6304316666667,-96.9807633333333,8.2,8.9,21,992.96,2.4,91,4.32,0.0,1020.69,228.3
2018-04-27 19:10,50.6304316666667,-96.9807633333333,7.9,8.5,22,993.02,2.7,88,4.35,0.0,1020.75,228.3
2018-04-27 19:20,50.6304066666667,-96.9807716666667,7.3,8.2,23,993.06,2.9,87,4.35,0.0,1020.79,228.3
2018-04-27 19:30,50.6304133333333,-96.9807716666667,7.9,9.0,18,993.06,3.2,83,4.37,0.0,1020.78,228.3
2018-04-27 19:40,50.630415,-96.9807733333333,9.1,10.3,13,993.04,3.5,80,4.38,0.0,1020.74,228.3
2018-04-27 19:50,50.630435,-96.9807733333333,9.6,10.2,19,993.03,3.5,80,4.38,0.0,1020.73,228.3
2018-04-27 20:00,50.6304266666667,-96.9807783333333,9.0,9.8,28,993.05,3.4,81,4.36,0.0,1020.75,270.0
2018-04-27 20:10,50.6304283333333,-96.980775,9.4,10.1,30,993.04,3.5,80,4.35,0.0,1020.73,270.0
2018-04-27 20:20,50.63043,-96.9807716666667,9.1,10.0,31,993.03,3.6,80,4.36,0.0,1020.71,270.0
2018-04-27 20:30,50.63044,-96.9807533333333,8.7,9.4,34,993.03,3.8,79,4.35,0.0,1020.71,270.0
2018-04-27 20:40,50.6304333333333,-96.980755,7.2,8.7,36,993.10,3.9,77,4.38,0.0,1020.78,270.0
2018-04-27 20:50,50.6304333333333,-96.9807533333333,6.6,7.2,37,993.12,3.8,79,4.41,0.0,1020.81,270.0
2018-04-27 21:00,50.6304333333333,-96.980755,7.3,7.7,30,993.21,3.9,75,4.42,0.0,1020.88,0.0
2018-04-27 21:10,50.6304316666667,-96.980755,5.9,7.1,35,993.26,4.4,73,4.41,0.0,1020.91,0.0
2018-04-27 21:20,50.630425,-96.9807633333333,5.2,6.5,47,993.27,3.4,82,4.44,0.0,1020.95,0.0
2018-04-27 21:30,50.6304333333333,-96.9807633333333,5.1,5.8,55,993.26,3.4,84,4.49,0.0,1020.92,0.0
2018-04-27 21:40,50.6304333333333,-96.980765,3.7,4.6,44,993.25,2.9,88,4.56,0.0,1020.93,0.0
2018-04-27 21:50,50.6304333333333,-96.98076,4.7,5.5,46,993.20,3.4,84,4.57,0.0,1020.86,0.0
2018-04-27 22:00,50.63044,-96.9807633333333,4.1,5.1,50,993.22,3.3,84,4.58,0.0,1020.88,360.0
2018-04-27 22:10,50.6304366666667,-96.9807616666667,5.4,8.5,38,993.26,3.2,86,4.65,0.0,1020.93,360.0
2018-04-27 22:20,50.6304366666667,-96.9807633333333,8.1,9.0,48,993.25,3.1,85,4.64,0.0,1020.91,360.0
2018-04-27 22:30,50.630435,-96.9807666666667,7.1,8.1,44,993.33,2.9,86,4.72,0.0,1021.00,360.0
2018-04-27 22:40,50.6304333333333,-96.9807683333333,5.1,6.1,36,993.34,2.4,89,4.83,0.0,1021.03,360.0
2018-04-27 22:50,50.630415,-96.9807716666667,4.7,5.6,39,993.34,2.5,89,4.87,0.0,1021.03,360.0
2018-04-27 23:00,50.6304216666667,-96.98077,4.9,5.9,50,993.37,2.8,87,4.84,0.0,1021.02,111.5
2018-04-27 23:10,50.6304266666667,-96.9807683333333,5.2,6.0,47,993.44,2.9,86,4.83,0.0,1021.14,111.5
2018-04-27 23:20,50.6304233333333,-96.980765,4.5,5.9,47,993.51,3.1,84,4.87,0.0,1021.20,111.5
2018-04-27 23:30,50.630425,-96.980765,4.2,5.1,37,993.56,3.3,81,4.85,0.0,1021.26,111.5
2018-04-27 23:40,50.6304233333333,-96.980765,4.7,5.3,52,993.53,3.8,76,4.83,0.0,1021.18,111.5
2018-04-27 23:50,50.6304233333333,-96.9807633333333,3.3,5.0,43,993.51,3.4,78,4.86,0.0,1021.19,111.5
